Farmington, MO

5:43 PM CST on November 18, 2019 (GMT -0600)
Farmington Regional

Weather History for KFAM - June, 2019

Change the Weather History Date:

Friday, June 7, 2019

  Actual Average Record
Temperature  
Mean Temperature 74 °F -  
Max Temperature 80 °F 77 °F 93 °F (2011)
Min Temperature 68 °F 59 °F 44 °F (1998)
Cooling Degree Days 9    
Growing Degree Days 24 (Base 50)    
Moisture  
Dew Point 69 °F    
Average Humidity 89    
Maximum Humidity 100    
Minimum Humidity 72    
Precipitation  
Precipitation 0.24 in - - ()
Sea Level Pressure  
Sea Level Pressure 29.79 in    
Wind  
Wind Speed 6 mph (NE)    
Max Wind Speed 20 mph    
Max Gust Speed 25 mph    
Visibility 9 miles    
Events Rain , Thunderstorm    
Averages and records for this station are not official NWS values.
T = Trace of Precipitation, MM = Missing Value Source: NWS Daily Summary

Daily Weather History Graph

Daily Weather History Graph

Search for Another Location

Airport or City:

Astronomy

Jun. 07, 2019 Rise Set
Actual Time 5:39 AM CDT 8:21 PM CDT
Civil Twilight 5:08 AM CDT 8:52 PM CDT
Nautical Twilight 4:30 AM CDT 9:31 PM CDT
Astronomical Twilight 3:46 AM CDT 10:14 PM CDT
Moon 9:55 AM CDT (6/7) No Moon Set
Length of Visible Light 15h 43m
Length of Day
14h 41m
Waxing Crescent, 22% of the Moon is Illuminated
Jun 7
Waxing Crescent
Jun 10
First Quarter
Jun 17
Full
Jun 25
Last Quarter
Jul 2
New

Hourly Weather History & Observations

Time (CDT) Temp. Dew Point Humidity Pressure Visibility Wind Dir Wind Speed Gust Speed Precip Events Conditions
12:56 AM 70.0 °F 69.1 °F 97% 29.76 in 10.0 mi Calm Calm - N/A   Clear
1:56 AM 70.0 °F 69.1 °F 97% 29.75 in 10.0 mi Calm Calm - N/A   Scattered Clouds
2:56 AM 71.1 °F 69.1 °F 93% 29.74 in 10.0 mi NE 5.8 mph - N/A   Clear
3:56 AM 70.0 °F 69.1 °F 97% 29.74 in 10.0 mi NE 3.5 mph - N/A   Partly Cloudy
5:51 AM 69.8 °F 69.8 °F 100% 29.78 in 7.0 mi East 3.5 mph - 0.00 in   Overcast
6:22 AM 71.6 °F 69.8 °F 94% 29.79 in 6.0 mi NE 4.6 mph - N/A   Overcast
6:56 AM 71.1 °F 70.0 °F 96% 29.77 in 5.0 mi ENE 5.8 mph - N/A   Overcast
7:56 AM 71.1 °F 70.0 °F 96% 29.78 in 3.0 mi NNE 5.8 mph - 0.04 in Rain Rain
8:23 AM 71.6 °F 69.8 °F 94% 29.81 in 8.0 mi ENE 6.9 mph - 0.01 in   Mostly Cloudy
8:31 AM 71.6 °F 69.8 °F 94% 29.81 in 9.0 mi ENE 6.9 mph - 0.01 in   Mostly Cloudy
8:41 AM 71.6 °F 69.8 °F 94% 29.81 in 9.0 mi NE 5.8 mph - 0.01 in   Overcast
8:56 AM 71.1 °F 70.0 °F 96% 29.78 in 9.0 mi ENE 6.9 mph - 0.01 in Rain Light Rain
9:56 AM 73.0 °F 71.1 °F 93% 29.79 in 10.0 mi ENE 9.2 mph - 0.00 in   Overcast
10:56 AM 77.0 °F 71.1 °F 82% 29.79 in 10.0 mi East 10.4 mph - N/A   Overcast
11:09 AM 75.2 °F 69.8 °F 83% 29.83 in 9.0 mi East 15.0 mph - 0.01 in Rain Light Rain
11:36 AM 73.4 °F 71.6 °F 94% 29.82 in 10.0 mi ENE 5.8 mph - 0.13 in   Mostly Cloudy
11:56 AM 77.0 °F 73.0 °F 88% 29.79 in 10.0 mi ENE 10.4 mph - 0.13 in   Partly Cloudy
12:48 PM 75.2 °F 69.8 °F 83% 29.81 in 9.0 mi NE 11.5 mph - 0.01 in Rain Light Rain
12:56 PM 75.9 °F 72.0 °F 87% 29.78 in 10.0 mi NE 9.2 mph - 0.01 in Rain Light Rain
1:18 PM 75.2 °F 71.6 °F 89% 29.80 in 10.0 mi ENE 8.1 mph - 0.00 in   Mostly Cloudy
1:56 PM 73.0 °F 69.1 °F 87% 29.78 in 10.0 mi NNE 9.2 mph - 0.00 in   Mostly Cloudy
2:56 PM 78.1 °F 71.1 °F 79% 29.76 in 10.0 mi NE 9.2 mph - N/A   Scattered Clouds
3:56 PM 79.0 °F 71.1 °F 77% 29.76 in 10.0 mi NNE 19.6 mph 25.3 mph N/A   Partly Cloudy
4:56 PM 79.0 °F 69.1 °F 72% 29.77 in 10.0 mi NE 16.1 mph - N/A   Clear
5:56 PM 77.0 °F 69.1 °F 76% 29.78 in 10.0 mi East 12.7 mph 19.6 mph N/A   Clear
6:56 PM 77.0 °F 68.0 °F 74% 29.79 in 10.0 mi East 9.2 mph - N/A   Scattered Clouds
7:56 PM 73.0 °F 66.9 °F 81% 29.81 in 7.0 mi NNE 10.4 mph 19.6 mph 0.04 in Rain Heavy Rain
8:06 PM 69.8 °F 66.2 °F 88% 29.82 in 10.0 mi North 3.5 mph - 0.01 in Rain , Thunderstorm Light Rain
8:10 PM 69.8 °F 66.2 °F 88% 29.82 in 10.0 mi North 5.8 mph - 0.01 in Rain , Thunderstorm Light Rain
8:21 PM 71.6 °F 66.2 °F 83% 29.82 in 10.0 mi NE 4.6 mph - 0.01 in   Overcast
8:56 PM 70.0 °F 68.0 °F 93% 29.80 in 10.0 mi NNE 3.5 mph - 0.01 in   Partly Cloudy
9:56 PM 69.1 °F 66.0 °F 90% 29.81 in 10.0 mi NNE 4.6 mph - N/A   Clear
10:56 PM 69.1 °F 66.0 °F 90% 29.81 in 10.0 mi Calm Calm - N/A   Overcast
11:56 PM 68.0 °F 64.9 °F 90% 29.81 in 9.0 mi North 4.6 mph - N/A   Clear